| time (UTC) | temp F | wind direction | speed MPH | gust MPH | rain 1hr in | rain 24hr in | rain mn in | humidity % | barometer mb |
| 20260505093937 | 51 | 0 | 0.0 | 2.0 | 0.00 | 0.00 | 0.00 | 70 | 1013.9 |
| 20260505093442 | 51 | 0 | 0.0 | 1.0 | 0.00 | 0.00 | 0.00 | 69 | 1013.8 |
| 20260505092937 | 51 | 0 | 0.0 | 0.0 | 0.00 | 0.00 | 0.00 | 69 | 1013.9 |
| 20260505092452 | 51 | 0 | 0.0 | 0.0 | 0.00 | 0.00 | 0.00 | 68 | 1013.9 |
| 20260505091937 | 51 | 0 | 0.0 | 0.0 | 0.00 | 0.00 | 0.00 | 68 | 1013.9 |
| 20260505091439 | 51 | 0 | 0.0 | 0.0 | 0.00 | 0.00 | 0.00 | 69 | 1014.0 |
| 20260505090937 | 51 | 0 | 0.0 | 0.0 | 0.00 | 0.00 | 0.00 | 69 | 1013.1 |
| 20260505090454 | 51 | 0 | 0.0 | 1.0 | 0.00 | 0.00 | 0.00 | 69 | 1013.1 |
| 20260505085954 | 51 | 0 | 0.0 | 1.0 | 0.00 | 0.00 | 0.00 | 69 | 1012.9 |
| 20260505085455 | 51 | 0 | 0.0 | 2.0 | 0.00 | 0.00 | 0.00 | 69 | 1013.0 |
| 20260505084937 | 51 | 0 | 0.0 | 2.0 | 0.00 | 0.00 | 0.00 | 69 | 1012.9 |
| 20260505084439 | 51 | 0 | 0.0 | 3.0 | 0.00 | 0.00 | 0.00 | 68 | 1012.7 |
| 20260505083937 | 52 | 0 | 0.0 | 3.0 | 0.00 | 0.00 | 0.00 | 68 | 1012.8 |
| 20260505083442 | 52 | 0 | 0.0 | 2.0 | 0.00 | 0.00 | 0.00 | 67 | 1012.8 |
| 20260505082937 | 53 | 0 | 0.0 | 2.0 | 0.00 | 0.00 | 0.00 | 67 | 1012.8 |
| 20260505082515 | 53 | 0 | 0.0 | 2.0 | 0.00 | 0.00 | 0.00 | 66 | 1012.7 |
| 20260505081937 | 52 | 0 | 0.0 | 4.0 | 0.00 | 0.00 | 0.00 | 67 | 1012.6 |
| 20260505081437 | 52 | 0 | 0.0 | 4.0 | 0.00 | 0.00 | 0.00 | 67 | 1012.4 |
| 20260505080937 | 52 | 242 | 1.0 | 4.0 | 0.00 | 0.00 | 0.00 | 68 | 1012.5 |
| 20260505080437 | 52 | 0 | 0.0 | 2.0 | 0.00 | 0.00 | 0.00 | 68 | 1012.5 |
| 20260505075937 | 52 | 0 | 0.0 | 2.0 | 0.00 | 0.00 | 0.00 | 67 | 1012.5 |
| 20260505075143 | 52 | 0 | 0.0 | 5.0 | 0.00 | 0.00 | 0.00 | 67 | 1012.5 |
| 20260505074643 | 52 | 0 | 0.0 | 5.0 | 0.00 | 0.00 | 0.00 | 66 | 1012.5 |
| 20260505074144 | 52 | 0 | 0.0 | 3.0 | 0.00 | 0.00 | 0.00 | 66 | 1012.5 |
| 20260505073642 | 53 | 0 | 0.0 | 3.0 | 0.00 | 0.00 | 0.00 | 66 | 1012.5 |
| 20260505073141 | 53 | 0 | 0.0 | 3.0 | 0.00 | 0.00 | 0.00 | 66 | 1012.4 |
| 20260505072657 | 53 | 0 | 0.0 | 3.0 | 0.00 | 0.00 | 0.00 | 66 | 1012.4 |
| 20260505072143 | 53 | 0 | 0.0 | 3.0 | 0.00 | 0.00 | 0.00 | 65 | 1012.4 |
| 20260505071641 | 53 | 0 | 0.0 | 8.0 | 0.00 | 0.00 | 0.00 | 65 | 1012.4 |
| 20260505071142 | 53 | 0 | 0.0 | 8.0 | 0.00 | 0.00 | 0.00 | 66 | 1012.3 |
| 20260505070641 | 53 | 0 | 0.0 | 4.0 | 0.00 | 0.00 | 0.00 | 65 | 1012.4 |
| 20260505070141 | 53 | 0 | 0.0 | 4.0 | 0.00 | 0.00 | 0.00 | 66 | 1012.4 |
| 20260505065641 | 53 | 0 | 0.0 | 3.0 | 0.00 | 0.00 | 0.00 | 65 | 1012.5 |
| 20260505065141 | 53 | 0 | 0.0 | 3.0 | 0.00 | 0.00 | 0.00 | 66 | 1012.5 |
| 20260505064642 | 53 | 249 | 1.0 | 3.0 | 0.00 | 0.00 | 0.00 | 65 | 1012.6 |
| 20260505064141 | 53 | 0 | 0.0 | 4.0 | 0.00 | 0.00 | 0.00 | 65 | 1012.6 |
| 20260505063657 | 53 | 0 | 0.0 | 6.0 | 0.00 | 0.00 | 0.00 | 65 | 1012.6 |
| 20260505063142 | 53 | 0 | 0.0 | 6.0 | 0.00 | 0.00 | 0.00 | 65 | 1012.7 |
| 20260505062656 | 53 | 0 | 0.0 | 5.0 | 0.00 | 0.00 | 0.00 | 65 | 1012.6 |
| 20260505062145 | 53 | 0 | 0.0 | 4.0 | 0.00 | 0.00 | 0.00 | 65 | 1012.7 |
| 20260505061656 | 53 | 0 | 0.0 | 5.0 | 0.00 | 0.00 | 0.00 | 65 | 1012.7 |
| 20260505061140 | 53 | 0 | 0.0 | 5.0 | 0.00 | 0.00 | 0.00 | 64 | 1012.7 |
| 20260505060642 | 53 | 0 | 0.0 | 3.0 | 0.00 | 0.00 | 0.00 | 64 | 1012.6 |
| 20260505060141 | 54 | 0 | 0.0 | 4.0 | 0.00 | 0.00 | 0.00 | 64 | 1012.7 |
| 20260505055641 | 54 | 0 | 0.0 | 4.0 | 0.00 | 0.00 | 0.00 | 64 | 1012.7 |
| 20260505055140 | 54 | 0 | 0.0 | 3.0 | 0.00 | 0.00 | 0.00 | 64 | 1012.8 |
| 20260505054641 | 54 | 0 | 0.0 | 3.0 | 0.00 | 0.00 | 0.00 | 64 | 1012.9 |
| 20260505054140 | 54 | 0 | 0.0 | 4.0 | 0.00 | 0.00 | 0.00 | 64 | 1012.8 |
| 20260505053643 | 53 | 0 | 0.0 | 4.0 | 0.00 | 0.00 | 0.00 | 64 | 1012.8 |
| 20260505053158 | 53 | 0 | 0.0 | 3.0 | 0.00 | 0.00 | 0.00 | 64 | 1012.7 |
| 20260505052643 | 54 | 0 | 0.0 | 2.0 | 0.00 | 0.00 | 0.00 | 64 | 1012.9 |
| 20260505052141 | 54 | 0 | 0.0 | 2.0 | 0.00 | 0.00 | 0.00 | 64 | 1012.8 |
| 20260505051604 | 54 | 0 | 0.0 | 3.0 | 0.00 | 0.00 | 0.00 | 63 | 1013.0 |
| 20260505051116 | 54 | 0 | 0.0 | 3.0 | 0.00 | 0.00 | 0.00 | 63 | 1012.8 |
| 20260505050604 | 54 | 0 | 0.0 | 3.0 | 0.00 | 0.00 | 0.00 | 62 | 1012.7 |
| 20260505050104 | 54 | 0 | 0.0 | 3.0 | 0.00 | 0.00 | 0.00 | 62 | 1012.7 |
| 20260505041753 | 55 | 0 | 0.0 | 1.0 | 0.00 | 0.00 | 0.00 | 60 | 1012.8 |
| 20260505041254 | 55 | 0 | 0.0 | 1.0 | 0.00 | 0.00 | 0.00 | 60 | 1012.8 |
| 20260505040753 | 55 | 0 | 0.0 | 2.0 | 0.00 | 0.00 | 0.00 | 60 | 1012.9 |
| 20260505040253 | 55 | 0 | 0.0 | 5.0 | 0.00 | 0.00 | 0.00 | 59 | 1012.9 |
| 20260505035753 | 55 | 0 | 0.0 | 5.0 | 0.00 | 0.00 | 0.00 | 60 | 1012.8 |
| 20260505035139 | 55 | 0 | 0.0 | 1.0 | 0.00 | 0.00 | 0.00 | 60 | 1012.9 |
| 20260505034636 | 55 | 0 | 0.0 | 1.0 | 0.00 | 0.00 | 0.00 | 60 | 1012.8 |
| 20260505034136 | 55 | 0 | 0.0 | 4.0 | 0.00 | 0.00 | 0.00 | 60 | 1013.0 |
| 20260505033641 | 56 | 0 | 0.0 | 4.0 | 0.00 | 0.00 | 0.00 | 60 | 1013.1 |
| 20260505033044 | 56 | 0 | 0.0 | 2.0 | 0.00 | 0.00 | 0.00 | 60 | 1013.1 |
| 20260505032544 | 56 | 0 | 0.0 | 5.0 | 0.00 | 0.00 | 0.00 | 60 | 1013.2 |
| 20260505032044 | 56 | 258 | 1.0 | 5.0 | 0.00 | 0.00 | 0.00 | 60 | 1013.1 |
| 20260505031544 | 56 | 0 | 0.0 | 4.0 | 0.00 | 0.00 | 0.00 | 60 | 1013.2 |
| 20260505031044 | 56 | 0 | 0.0 | 4.0 | 0.00 | 0.00 | 0.00 | 60 | 1013.3 |
| 20260505030118 | 56 | 0 | 0.0 | 4.0 | 0.00 | 0.00 | 0.00 | 61 | 1013.3 |
| 20260505025618 | 56 | 0 | 0.0 | 4.0 | 0.00 | 0.00 | 0.00 | 60 | 1013.4 |
| 20260505025118 | 56 | 0 | 0.0 | 4.0 | 0.00 | 0.00 | 0.00 | 61 | 1013.5 |
| 20260505024514 | 56 | 0 | 0.0 | 4.0 | 0.00 | 0.00 | 0.00 | 60 | 1013.6 |
| 20260505024014 | 56 | 0 | 0.0 | 4.0 | 0.00 | 0.00 | 0.00 | 60 | 1013.7 |
| 20260505023519 | 56 | 0 | 0.0 | 2.0 | 0.00 | 0.00 | 0.00 | 60 | 1013.6 |
| 20260505023013 | 57 | 0 | 0.0 | 3.0 | 0.00 | 0.00 | 0.00 | 60 | 1013.4 |
| 20260505022526 | 57 | 0 | 0.0 | 3.0 | 0.00 | 0.00 | 0.00 | 60 | 1013.5 |
| 20260505022013 | 57 | 0 | 0.0 | 1.0 | 0.00 | 0.00 | 0.00 | 60 | 1013.4 |
| 20260505021513 | 57 | 0 | 0.0 | 1.0 | 0.00 | 0.00 | 0.00 | 60 | 1013.5 |
| 20260505021013 | 57 | 0 | 0.0 | 4.0 | 0.00 | 0.00 | 0.00 | 60 | 1013.4 |
| 20260505020513 | 57 | 0 | 0.0 | 4.0 | 0.00 | 0.00 | 0.00 | 60 | 1013.5 |
| 20260505020013 | 57 | 0 | 0.0 | 1.0 | 0.00 | 0.00 | 0.00 | 59 | 1013.6 |
| 20260505015514 | 57 | 0 | 0.0 | 1.0 | 0.00 | 0.00 | 0.00 | 59 | 1013.5 |
| 20260505015021 | 58 | 0 | 0.0 | 1.0 | 0.00 | 0.00 | 0.00 | 59 | 1013.6 |
| 20260505014524 | 58 | 0 | 0.0 | 1.0 | 0.00 | 0.00 | 0.00 | 59 | 1013.5 |
| 20260505014013 | 58 | 0 | 0.0 | 1.0 | 0.00 | 0.00 | 0.00 | 59 | 1013.5 |
| 20260505013513 | 58 | 0 | 0.0 | 0.0 | 0.00 | 0.00 | 0.00 | 58 | 1013.5 |
| 20260505013014 | 58 | 0 | 0.0 | 1.0 | 0.00 | 0.00 | 0.00 | 58 | 1013.4 |
| 20260505012513 | 58 | 0 | 0.0 | 1.0 | 0.00 | 0.00 | 0.00 | 58 | 1013.4 |
| 20260505012013 | 58 | 0 | 0.0 | 1.0 | 0.00 | 0.00 | 0.00 | 58 | 1013.3 |
| 20260505011513 | 59 | 0 | 0.0 | 1.0 | 0.00 | 0.00 | 0.00 | 58 | 1013.2 |
| 20260505010923 | 59 | 0 | 0.0 | 2.0 | 0.00 | 0.00 | 0.00 | 57 | 1013.2 |
| 20260505010423 | 59 | 0 | 0.0 | 2.0 | 0.00 | 0.00 | 0.00 | 57 | 1013.2 |
| 20260505005934 | 59 | 0 | 0.0 | 2.0 | 0.00 | 0.00 | 0.00 | 58 | 1013.1 |
| 20260505005423 | 59 | 0 | 0.0 | 1.0 | 0.00 | 0.00 | 0.00 | 58 | 1013.1 |
| 20260505004923 | 59 | 0 | 0.0 | 1.0 | 0.00 | 0.00 | 0.00 | 58 | 1013.0 |
| 20260505004423 | 59 | 0 | 0.0 | 1.0 | 0.00 | 0.00 | 0.00 | 57 | 1013.0 |
| 20260505003924 | 59 | 0 | 0.0 | 2.0 | 0.00 | 0.00 | 0.00 | 58 | 1013.0 |
| 20260505003423 | 60 | 0 | 0.0 | 2.0 | 0.00 | 0.00 | 0.00 | 58 | 1012.9 |
| 20260505002923 | 60 | 0 | 0.0 | 1.0 | 0.00 | 0.00 | 0.00 | 58 | 1012.9 |
| 20260505002423 | 60 | 0 | 0.0 | 1.0 | 0.00 | 0.00 | 0.00 | 57 | 1012.9 |
| 20260505001431 | 60 | 0 | 0.0 | 4.0 | 0.00 | 0.00 | 0.00 | 56 | 1013.0 |
| 20260505000931 | 60 | 0 | 0.0 | 4.0 | 0.00 | 0.00 | 0.00 | 57 | 1012.9 |
| 20260505000322 | 61 | 0 | 0.0 | 5.0 | 0.00 | 0.00 | 0.00 | 56 | 1012.9 |
| 20260504235827 | 61 | 0 | 0.0 | 5.0 | 0.00 | 0.00 | 0.00 | 56 | 1012.9 |
| 20260504235322 | 61 | 0 | 0.0 | 1.0 | 0.00 | 0.00 | 0.00 | 56 | 1012.9 |
| 20260504234822 | 61 | 0 | 0.0 | 2.0 | 0.00 | 0.00 | 0.00 | 56 | 1012.9 |
| 20260504234322 | 61 | 0 | 0.0 | 2.0 | 0.00 | 0.00 | 0.00 | 55 | 1012.8 |
| 20260504233822 | 62 | 0 | 0.0 | 2.0 | 0.00 | 0.00 | 0.00 | 56 | 1012.7 |
| 20260504233322 | 62 | 0 | 0.0 | 1.0 | 0.00 | 0.00 | 0.00 | 56 | 1012.7 |
| 20260504232824 | 62 | 0 | 0.0 | 3.0 | 0.00 | 0.00 | 0.00 | 56 | 1012.7 |
| 20260504232323 | 62 | 0 | 0.0 | 3.0 | 0.00 | 0.00 | 0.00 | 55 | 1012.6 |
| 20260504231822 | 62 | 0 | 0.0 | 1.0 | 0.00 | 0.00 | 0.00 | 55 | 1012.6 |
| 20260504231342 | 62 | 0 | 0.0 | 1.0 | 0.00 | 0.00 | 0.00 | 55 | 1012.5 |
| 20260504230822 | 63 | 0 | 0.0 | 2.0 | 0.00 | 0.00 | 0.00 | 54 | 1012.5 |
| 20260504230322 | 63 | 0 | 0.0 | 2.0 | 0.00 | 0.00 | 0.00 | 54 | 1012.5 |
| 20260504225827 | 63 | 0 | 0.0 | 2.0 | 0.00 | 0.00 | 0.00 | 55 | 1012.5 |
| 20260504225322 | 63 | 0 | 0.0 | 5.0 | 0.00 | 0.00 | 0.00 | 55 | 1012.5 |
| 20260504224822 | 64 | 0 | 0.0 | 5.0 | 0.00 | 0.00 | 0.00 | 54 | 1012.6 |
| 20260504224322 | 64 | 0 | 0.0 | 1.0 | 0.00 | 0.00 | 0.00 | 55 | 1012.5 |
| 20260504223824 | 64 | 0 | 0.0 | 1.0 | 0.00 | 0.00 | 0.00 | 55 | 1012.5 |
| 20260504223322 | 64 | 0 | 0.0 | 5.0 | 0.00 | 0.00 | 0.00 | 54 | 1012.5 |
| 20260504222822 | 64 | 0 | 0.0 | 5.0 | 0.00 | 0.00 | 0.00 | 53 | 1012.5 |
| 20260504222322 | 65 | 0 | 0.0 | 1.0 | 0.00 | 0.00 | 0.00 | 53 | 1012.5 |
| 20260504221839 | 65 | 0 | 0.0 | 2.0 | 0.00 | 0.00 | 0.00 | 52 | 1012.5 |
| 20260504221322 | 65 | 0 | 0.0 | 3.0 | 0.00 | 0.00 | 0.00 | 52 | 1012.5 |
| 20260504220822 | 66 | 0 | 0.0 | 5.0 | 0.00 | 0.00 | 0.00 | 51 | 1012.6 |
| 20260504220322 | 66 | 0 | 0.0 | 5.0 | 0.00 | 0.00 | 0.00 | 51 | 1012.6 |
| 20260504215822 | 66 | 0 | 0.0 | 3.0 | 0.00 | 0.00 | 0.00 | 51 | 1012.6 |
| 20260504215322 | 67 | 0 | 0.0 | 4.0 | 0.00 | 0.00 | 0.00 | 50 | 1012.6 |
| 20260504214822 | 67 | 0 | 0.0 | 5.0 | 0.00 | 0.00 | 0.00 | 51 | 1012.6 |
| 20260504214322 | 67 | 0 | 0.0 | 5.0 | 0.00 | 0.00 | 0.00 | 51 | 1012.6 |
| 20260504213822 | 67 | 0 | 0.0 | 4.0 | 0.00 | 0.00 | 0.00 | 51 | 1012.7 |
| 20260504213322 | 67 | 0 | 0.0 | 3.0 | 0.00 | 0.00 | 0.00 | 52 | 1012.7 |
| 20260504212826 | 67 | 0 | 0.0 | 3.0 | 0.00 | 0.00 | 0.00 | 52 | 1012.7 |
| 20260504212324 | 68 | 0 | 0.0 | 8.0 | 0.00 | 0.00 | 0.00 | 49 | 1012.6 |
| 20260504211822 | 69 | 247 | 1.0 | 8.0 | 0.00 | 0.00 | 0.00 | 48 | 1012.7 |
| 20260504211322 | 69 | 0 | 0.0 | 3.0 | 0.00 | 0.00 | 0.00 | 49 | 1012.6 |
| 20260504210635 | 69 | 0 | 0.0 | 6.0 | 0.00 | 0.00 | 0.00 | 50 | 1012.6 |
| 20260504210121 | 69 | 0 | 0.0 | 6.0 | 0.00 | 0.00 | 0.00 | 50 | 1012.5 |
| 20260504205622 | 69 | 0 | 0.0 | 6.0 | 0.00 | 0.00 | 0.00 | 46 | 1012.6 |
| 20260504205121 | 69 | 0 | 0.0 | 2.0 | 0.00 | 0.00 | 0.00 | 51 | 1012.6 |
| 20260504204621 | 69 | 0 | 0.0 | 4.0 | 0.00 | 0.00 | 0.00 | 52 | 1012.7 |
| 20260504204123 | 69 | 0 | 0.0 | 4.0 | 0.00 | 0.00 | 0.00 | 49 | 1012.7 |
| 20260504203621 | 69 | 0 | 0.0 | 5.0 | 0.00 | 0.00 | 0.00 | 51 | 1012.7 |
| 20260504203121 | 69 | 35 | 1.0 | 5.0 | 0.00 | 0.00 | 0.00 | 50 | 1012.7 |
| 20260504202621 | 68 | 0 | 0.0 | 1.0 | 0.00 | 0.00 | 0.00 | 53 | 1012.8 |
| 20260504202121 | 68 | 0 | 0.0 | 1.0 | 0.00 | 0.00 | 0.00 | 55 | 1012.9 |
| 20260504201621 | 68 | 0 | 0.0 | 1.0 | 0.00 | 0.00 | 0.00 | 54 | 1012.8 |
| 20260504201121 | 68 | 0 | 0.0 | 3.0 | 0.00 | 0.00 | 0.00 | 53 | 1013.0 |
| 20260504200621 | 68 | 0 | 0.0 | 3.0 | 0.00 | 0.00 | 0.00 | 52 | 1013.0 |
| 20260504200121 | 68 | 0 | 0.0 | 4.0 | 0.00 | 0.00 | 0.00 | 54 | 1013.0 |
| 20260504195621 | 69 | 0 | 0.0 | 4.0 | 0.00 | 0.00 | 0.00 | 56 | 1013.1 |
| 20260504195121 | 69 | 0 | 0.0 | 3.0 | 0.00 | 0.00 | 0.00 | 53 | 1013.2 |
| 20260504194621 | 69 | 0 | 0.0 | 4.0 | 0.00 | 0.00 | 0.00 | 54 | 1013.2 |
| 20260504194136 | 69 | 0 | 0.0 | 4.0 | 0.00 | 0.00 | 0.00 | 53 | 1013.2 |
| 20260504193621 | 70 | 0 | 0.0 | 3.0 | 0.00 | 0.00 | 0.00 | 52 | 1013.2 |
| 20260504193121 | 70 | 0 | 0.0 | 4.0 | 0.00 | 0.00 | 0.00 | 50 | 1013.3 |
| 20260504192621 | 70 | 0 | 0.0 | 6.0 | 0.00 | 0.00 | 0.00 | 51 | 1013.4 |
| 20260504192121 | 70 | 0 | 0.0 | 6.0 | 0.00 | 0.00 | 0.00 | 52 | 1013.6 |
| 20260504191621 | 70 | 0 | 0.0 | 5.0 | 0.00 | 0.00 | 0.00 | 53 | 1013.6 |
| 20260504191121 | 69 | 0 | 0.0 | 5.0 | 0.00 | 0.00 | 0.00 | 53 | 1013.6 |
| 20260504190621 | 69 | 274 | 1.0 | 5.0 | 0.00 | 0.00 | 0.00 | 51 | 1013.9 |
| 20260504190122 | 68 | 0 | 0.0 | 3.0 | 0.00 | 0.00 | 0.00 | 54 | 1013.9 |
| 20260504185621 | 68 | 0 | 0.0 | 5.0 | 0.00 | 0.00 | 0.00 | 53 | 1013.8 |
| 20260504185121 | 68 | 0 | 0.0 | 5.0 | 0.00 | 0.00 | 0.00 | 54 | 1014.0 |
| 20260504184621 | 68 | 0 | 0.0 | 5.0 | 0.00 | 0.00 | 0.00 | 50 | 1014.0 |
| 20260504184137 | 68 | 0 | 0.0 | 2.0 | 0.00 | 0.00 | 0.00 | 49 | 1014.0 |
| 20260504183636 | 68 | 0 | 0.0 | 2.0 | 0.00 | 0.00 | 0.00 | 53 | 1014.0 |
| 20260504183121 | 68 | 0 | 0.0 | 1.0 | 0.00 | 0.00 | 0.00 | 55 | 1014.1 |
| 20260504182028 | 68 | 0 | 0.0 | 4.0 | 0.00 | 0.00 | 0.00 | 55 | 1014.3 |
| 20260504181530 | 67 | 0 | 0.0 | 4.0 | 0.00 | 0.00 | 0.00 | 53 | 1014.3 |
| 20260504181028 | 67 | 0 | 0.0 | 4.0 | 0.00 | 0.00 | 0.00 | 52 | 1013.4 |
| 20260504180528 | 67 | 0 | 0.0 | 5.0 | 0.00 | 0.00 | 0.00 | 58 | 1013.5 |
| 20260504180028 | 67 | 0 | 0.0 | 5.0 | 0.00 | 0.00 | 0.00 | 54 | 1013.5 |
| 20260504175530 | 67 | 0 | 0.0 | 5.0 | 0.00 | 0.00 | 0.00 | 57 | 1013.6 |
| 20260504175028 | 67 | 0 | 0.0 | 5.0 | 0.00 | 0.00 | 0.00 | 54 | 1013.8 |
| 20260504174529 | 67 | 0 | 0.0 | 5.0 | 0.00 | 0.00 | 0.00 | 50 | 1013.7 |
| 20260504174028 | 67 | 0 | 0.0 | 5.0 | 0.00 | 0.00 | 0.00 | 56 | 1013.6 |
| 20260504173528 | 67 | 0 | 0.0 | 4.0 | 0.00 | 0.00 | 0.00 | 53 | 1013.7 |
| 20260504173028 | 68 | 58 | 1.0 | 6.0 | 0.00 | 0.00 | 0.00 | 51 | 1013.7 |
| 20260504172531 | 68 | 0 | 0.0 | 6.0 | 0.00 | 0.00 | 0.00 | 50 | 1013.8 |
| 20260504172028 | 68 | 0 | 0.0 | 3.0 | 0.00 | 0.00 | 0.00 | 52 | 1013.9 |
| 20260504171531 | 68 | 0 | 0.0 | 2.0 | 0.00 | 0.00 | 0.00 | 51 | 1013.8 |
| 20260504171028 | 67 | 0 | 0.0 | 3.0 | 0.00 | 0.00 | 0.00 | 50 | 1013.7 |
| 20260504170528 | 67 | 0 | 0.0 | 3.0 | 0.00 | 0.00 | 0.00 | 49 | 1013.8 |
| 20260504160241 | 61 | 0 | 0.0 | 4.0 | 0.00 | 0.00 | 0.00 | 59 | 1014.6 |
| 20260504150920 | 61 | 360 | 1.0 | 7.0 | 0.00 | 0.00 | 0.00 | 53 | 1014.7 |
| 20260504150258 | 62 | 0 | 0.0 | 7.0 | 0.00 | 0.00 | 0.00 | 50 | 1014.9 |
| 20260504141258 | 63 | 309 | 1.0 | 5.0 | 0.00 | 0.00 | 0.00 | 47 | 1015.5 |
| 20260504140758 | 62 | 293 | 1.0 | 3.0 | 0.00 | 0.00 | 0.00 | 47 | 1015.5 |
| 20260504130515 | 55 | 0 | 0.0 | 2.0 | 0.00 | 0.00 | 0.00 | 56 | 1014.5 |
| 20260504110550 | 46 | 0 | 0.0 | 2.0 | 0.00 | 0.00 | 0.00 | 66 | 1014.4 |
| 20260504100523 | 46 | 0 | 0.0 | 1.0 | 0.00 | 0.00 | 0.00 | 62 | 1014.3 |